2026-023H

Last updated on Sun Mar 08 2026 00:02:12 GMT+0000 (Coordinated Universal Time)

1 67681U 26023H 26066.61487353 .00015796 00000+0 66683-3 0 9997 2 67681 96.6396 142.3121 0023840 124.6868 235.6622 15.23074036 4523
UTC large
Height (km)
Speed (km/s)
/
Latitude / Longitude
Inclination (degrees)
Orbital Period (minutes)
Azimuth
Elevation
Range (km)
Doppler Factor

Next 0 passes for location: London (51.5072 / 0.1276)

Sorry there are no passes over London.